Time,TemperatureF,DewpointF,PressureIn,WindDirection,WindDirectionDegrees,WindSpeedMPH,WindSpeedGustMPH,Humidity,HourlyPrecipIn,Conditions,Clouds,dailyrainin,SoftwareType,DateUTC
2013-05-26 00:03:00,48.0,-99.9,-100.00,North,359,1.0,0.0,-999,0.00,,,0.64,,2013-05-26 04:03:00,
2013-05-26 00:13:00,48.0,-99.9,-100.00,North,359,1.0,0.0,-999,0.00,,,0.64,,2013-05-26 04:13:00,
2013-05-26 00:23:00,49.0,-99.9,-100.00,North,359,0.0,0.0,-999,0.00,,,0.64,,2013-05-26 04:23:00,
2013-05-26 00:33:00,49.0,-99.9,-100.00,WNW,293,0.0,0.0,-999,0.00,,,0.64,,2013-05-26 04:33:00,
2013-05-26 00:43:00,49.0,-99.9,-100.00,WNW,293,0.0,0.0,-999,0.00,,,0.64,,2013-05-26 04:43:00,
2013-05-26 00:53:00,49.0,-99.9,-100.00,North,359,0.0,0.0,-999,0.00,,,0.64,,2013-05-26 04:53:00,
2013-05-26 01:03:00,48.0,-99.9,-100.00,NNE,21,6.0,6.0,-999,0.00,,,0.64,,2013-05-26 05:03:00,
2013-05-26 01:12:00,48.0,-99.9,-100.00,NNE,21,6.0,6.0,-999,0.00,,,0.64,,2013-05-26 05:12:00,
2013-05-26 01:22:00,48.0,-99.9,-100.00,NNE,21,6.0,6.0,-999,0.00,,,0.64,,2013-05-26 05:22:00,
2013-05-26 01:32:00,48.0,-99.9,-100.00,NNE,14,0.0,3.0,-999,0.00,,,0.64,,2013-05-26 05:32:00,
2013-05-26 01:42:00,48.0,-99.9,-100.00,NNE,14,0.0,3.0,-999,0.00,,,0.64,,2013-05-26 05:42:00,
2013-05-26 01:52:00,48.0,-99.9,-100.00,NNE,14,0.0,3.0,-999,0.00,,,0.64,,2013-05-26 05:52:00,
2013-05-26 02:01:00,48.0,-99.9,-100.00,NNE,23,0.0,0.0,-999,0.01,,,0.64,,2013-05-26 06:01:00,
2013-05-26 02:12:00,48.0,-99.9,-100.00,NNE,23,0.0,0.0,-999,0.01,,,0.64,,2013-05-26 06:12:00,
2013-05-26 02:22:00,48.0,-99.9,-100.00,South,188,2.0,0.0,-999,0.01,,,0.64,,2013-05-26 06:22:00,
2013-05-26 02:32:00,48.0,-99.9,-100.00,WSW,252,0.0,0.0,-999,0.01,,,0.64,,2013-05-26 06:32:00,
2013-05-26 02:42:00,48.0,-99.9,-100.00,WSW,252,0.0,0.0,-999,0.01,,,0.64,,2013-05-26 06:42:00,
2013-05-26 02:52:00,48.0,-99.9,-100.00,SW,217,2.0,0.0,-999,0.01,,,0.64,,2013-05-26 06:52:00,
2013-05-26 03:02:00,48.0,-99.9,-100.00,WNW,302,0.0,0.0,-999,0.01,,,0.64,,2013-05-26 07:02:00,
2013-05-26 03:11:00,48.0,-99.9,-100.00,WNW,302,0.0,0.0,-999,0.01,,,0.64,,2013-05-26 07:11:00,
2013-05-26 03:22:00,48.0,-99.9,-100.00,WNW,302,0.0,0.0,-999,0.01,,,0.64,,2013-05-26 07:22:00,
2013-05-26 03:32:00,48.0,-99.9,-100.00,WNW,302,0.0,0.0,-999,0.01,,,0.64,,2013-05-26 07:32:00,
2013-05-26 03:42:00,48.0,-99.9,-100.00,WNW,302,0.0,0.0,-999,0.01,,,0.64,,2013-05-26 07:42:00,
2013-05-26 03:52:00,48.0,-99.9,-100.00,NW,323,1.0,0.0,-999,0.01,,,0.64,,2013-05-26 07:52:00,
2013-05-26 04:02:00,48.0,-99.9,-100.00,NW,323,0.0,0.0,-999,0.00,,,0.64,,2013-05-26 08:02:00,
2013-05-26 04:12:00,48.0,-99.9,-100.00,NW,323,0.0,0.0,-999,0.00,,,0.64,,2013-05-26 08:12:00,
2013-05-26 04:22:00,48.0,-99.9,-100.00,NW,325,0.0,6.0,-999,0.00,,,0.64,,2013-05-26 08:22:00,
2013-05-26 04:32:00,48.0,-99.9,-100.00,West,278,2.0,3.0,-999,0.00,,,0.64,,2013-05-26 08:32:00,
2013-05-26 04:42:00,48.0,-99.9,-100.00,West,278,2.0,3.0,-999,0.00,,,0.64,,2013-05-26 08:42:00,
2013-05-26 04:53:00,47.0,-99.9,-100.00,NNW,335,0.0,0.0,-999,0.00,,,0.64,,2013-05-26 08:53:00,
2013-05-26 05:02:00,47.0,-99.9,-100.00,NNW,335,0.0,0.0,-999,0.00,,,0.64,,2013-05-26 09:02:00,
2013-05-26 05:11:00,47.0,-99.9,-100.00,NNW,335,0.0,0.0,-999,0.00,,,0.64,,2013-05-26 09:11:00,
2013-05-26 05:22:00,47.0,-99.9,-100.00,NNW,335,0.0,0.0,-999,0.00,,,0.64,,2013-05-26 09:22:00,
2013-05-26 05:34:00,47.0,-99.9,-100.00,SSE,150,0.0,0.0,-999,0.00,,,0.64,,2013-05-26 09:34:00,
2013-05-26 05:43:00,47.0,-99.9,-100.00,SSE,150,0.0,0.0,-999,0.00,,,0.64,,2013-05-26 09:43:00,
2013-05-26 05:53:00,48.0,-99.9,-100.00,SSE,162,0.0,2.0,-999,0.00,,,0.64,,2013-05-26 09:53:00,
2013-05-26 06:03:00,48.0,-99.9,-100.00,South,179,0.0,0.0,-999,0.00,,,0.64,,2013-05-26 10:03:00,
2013-05-26 06:12:00,48.0,-99.9,-100.00,South,179,0.0,0.0,-999,0.00,,,0.64,,2013-05-26 10:12:00,
2013-05-26 06:23:00,48.0,-99.9,-100.00,NNW,343,0.0,0.0,-999,0.00,,,0.64,,2013-05-26 10:23:00,
2013-05-26 06:33:00,48.0,-99.9,-100.00,NNW,343,0.0,0.0,-999,0.00,,,0.64,,2013-05-26 10:33:00,
2013-05-26 06:43:00,48.0,-99.9,-100.00,WSW,239,0.0,0.0,-999,0.00,,,0.64,,2013-05-26 10:43:00,
2013-05-26 06:52:00,48.0,-99.9,-100.00,WSW,239,0.0,0.0,-999,0.00,,,0.64,,2013-05-26 10:52:00,
2013-05-26 07:03:00,48.0,-99.9,-100.00,WSW,239,0.0,0.0,-999,0.00,,,0.64,,2013-05-26 11:03:00,
2013-05-26 07:12:00,48.0,-99.9,-100.00,WSW,239,0.0,0.0,-999,0.00,,,0.64,,2013-05-26 11:12:00,
2013-05-26 07:23:00,48.0,-99.9,-100.00,WSW,239,0.0,0.0,-999,0.00,,,0.64,,2013-05-26 11:23:00,
2013-05-26 08:22:00,49.0,-99.9,-100.00,WNW,293,5.0,5.0,-999,0.00,,,0.64,,2013-05-26 12:22:00,
2013-05-26 08:32:00,49.0,-99.9,-100.00,WNW,293,5.0,5.0,-999,0.00,,,0.64,,2013-05-26 12:32:00,
2013-05-26 08:42:00,49.0,-99.9,-100.00,WNW,293,5.0,5.0,-999,0.00,,,0.64,,2013-05-26 12:42:00,
2013-05-26 08:52:00,49.0,-99.9,-100.00,WNW,293,5.0,5.0,-999,0.00,,,0.64,,2013-05-26 12:52:00,
2013-05-26 22:02:00,50.0,-99.9,-100.00,North,359,0.0,0.0,-999,0.00,,,0.22,,2013-05-27 02:02:00,
2013-05-26 22:11:00,50.0,-99.9,-100.00,North,359,0.0,0.0,-999,0.00,,,0.22,,2013-05-27 02:11:00,
2013-05-26 22:22:00,50.0,-99.9,-100.00,North,359,0.0,0.0,-999,0.00,,,0.22,,2013-05-27 02:22:00,
2013-05-26 22:32:00,50.0,-99.9,-100.00,North,359,0.0,0.0,-999,0.00,,,0.22,,2013-05-27 02:32:00,
2013-05-26 22:43:00,50.0,-99.9,-100.00,North,359,0.0,0.0,-999,0.00,,,0.22,,2013-05-27 02:43:00,
2013-05-26 23:33:00,49.0,-99.9,-100.00,North,359,0.0,0.0,-999,0.00,,,0.22,,2013-05-27 03:33:00,
2013-05-26 23:43:00,49.0,-99.9,-100.00,North,359,0.0,0.0,-999,0.00,,,0.22,,2013-05-27 03:43:00,
2013-05-26 23:54:00,49.0,-99.9,-100.00,North,359,0.0,0.0,-999,0.00,,,0.22,,2013-05-27 03:54:00,